FW9813 Weather Reports


Display with metric or nautical units.
time (UTC)temp
F
wind
direction
speed
MPH
gust
MPH
rain 1hr
in
rain 24hr
in
rain mn
in
humidity
%
barometer
mb
20260903181546 87 61 2.0 7.0 0.00 0.00 0.00 56 1009.3
20260903180100 86 52 2.0 8.0 0.00 0.00 0.00 57 1009.6
20260903174552 86 14 2.0 9.0 0.00 0.00 0.00 55 1009.6
20260903173049 87 53 2.0 5.0 0.00 0.00 0.00 56 1009.8
20260903171552 86 57 1.0 4.0 0.00 0.00 0.00 58 1009.8
20260903170048 85 49 1.0 4.0 0.00 0.00 0.00 58 1010.0
20260903164556 85 5 0.0 4.0 0.00 0.00 0.00 60 1010.1
20260903163049 84 125 1.0 5.0 0.00 0.00 0.00 62 1010.2
20260903161548 83 61 0.0 3.0 0.00 0.00 0.00 65 1010.3
20260903160101 82 339 0.0 4.0 0.00 0.00 0.00 68 1010.4
20260903154552 81 0 0.0 5.0 0.00 0.00 0.00 70 1010.2
20260903153049 80 323 2.0 3.0 0.00 0.00 0.00 71 1010.4
20260903151545 79 360 0.0 4.0 0.00 0.00 0.00 74 1010.4
20260903150110 78 17 1.0 3.0 0.00 0.00 0.00 75 1010.3
20260903144556 77 9 1.0 3.0 0.00 0.00 0.00 77 1010.3
20260903143048 75 44 1.0 4.0 0.00 0.00 0.00 79 1010.4
20260903141547 74 338 1.0 3.0 0.00 0.00 0.00 81 1010.4
20260903140111 73 0 0.0 5.0 0.00 0.00 0.00 82 1010.7
20260903134554 72 317 1.0 3.0 0.00 0.00 0.00 83 1010.9
20260903133054 71 352 0.0 3.0 0.00 0.00 0.00 84 1010.9
20260903131548 70 342 1.0 4.0 0.00 0.00 0.00 84 1010.9
20260903130058 70 11 2.0 5.0 0.00 0.00 0.00 85 1010.7
20260903124557 70 352 2.0 4.0 0.00 0.00 0.00 85 1010.9
20260903123044 70 16 0.0 4.0 0.00 0.00 0.00 85 1010.9
20260903121547 70 327 1.0 5.0 0.00 0.00 0.00 85 1010.9
20260903120104 69 341 1.0 4.0 0.00 0.00 0.00 85 1010.7
20260903114548 69 18 1.0 3.0 0.00 0.00 0.00 86 1010.8
20260903113048 69 0 0.0 4.0 0.00 0.00 0.00 86 1010.8
20260903111546 68 330 1.0 3.0 0.00 0.00 0.00 86 1010.7
20260903110048 68 0 0.0 2.0 0.00 0.00 0.00 85 1010.9
20260903104550 69 0 0.0 3.0 0.00 0.00 0.00 85 1010.8
20260903103048 69 0 0.0 3.0 0.00 0.00 0.00 84 1010.9
20260903101546 69 0 0.0 4.0 0.00 0.00 0.00 84 1010.7
20260903100051 69 0 0.0 3.0 0.00 0.00 0.00 84 1010.6
20260903094554 69 348 1.0 3.0 0.00 0.00 0.00 83 1010.3
20260903093116 69 0 0.0 2.0 0.00 0.00 0.00 82 1010.3
20260903091554 69 0 0.0 2.0 0.00 0.00 0.00 81 1010.5
20260903090049 70 0 0.0 3.0 0.00 0.00 0.00 81 1010.3
20260903084547 69 345 0.0 3.0 0.00 0.00 0.00 81 1010.4
20260903083100 69 0 0.0 2.0 0.00 0.00 0.00 80 1010.7
20260903081557 70 0 0.0 2.0 0.00 0.00 0.00 80 1010.5
20260903080053 70 0 0.0 2.0 0.00 0.00 0.00 79 1010.9
20260903074618 70 0 0.0 2.0 0.00 0.00 0.00 78 1010.8
20260903073059 71 0 0.0 2.0 0.00 0.00 0.00 77 1010.9
20260903071550 71 330 0.0 2.0 0.00 0.00 0.00 76 1010.9
20260903070048 72 0 0.0 2.0 0.00 0.00 0.00 76 1011.0
20260903064554 72 0 0.0 2.0 0.00 0.00 0.00 75 1011.1
20260903063047 72 0 0.0 3.0 0.00 0.00 0.00 75 1011.0
20260903061551 73 348 1.0 3.0 0.00 0.00 0.00 73 1011.1
20260903060057 73 342 0.0 3.0 0.00 0.00 0.00 73 1011.4
20260903054553 73 352 0.0 4.0 0.00 0.00 0.00 72 1011.4
20260903053051 74 344 0.0 3.0 0.00 0.00 0.00 71 1011.3
20260903051554 74 325 1.0 4.0 0.00 0.00 0.00 71 1011.5
20260903050049 74 352 1.0 4.0 0.00 0.00 0.00 70 1011.4
20260903044554 74 9 0.0 3.0 0.00 0.00 0.00 69 1011.5
20260903043047 75 0 0.0 3.0 0.00 0.00 0.00 69 1011.7
20260903041553 75 0 0.0 2.0 0.00 0.00 0.00 69 1011.7
20260903040049 75 346 0.0 1.0 0.00 0.00 0.00 69 1011.7
20260903034605 75 0 0.0 3.0 0.00 0.00 0.00 68 1011.7
20260903033107 75 352 0.0 4.0 0.00 0.00 0.00 69 1011.8
20260903031612 74 0 0.0 2.0 0.00 0.00 0.00 70 1011.8
20260903030054 74 0 0.0 0.0 0.00 0.00 0.00 69 1011.8
20260903024548 75 0 0.0 0.0 0.00 0.00 0.00 68 1011.8
20260903023044 76 0 0.0 0.0 0.00 0.00 0.00 67 1011.8
20260903021550 76 0 0.0 0.0 0.00 0.00 0.00 65 1011.8
20260903020052 77 0 0.0 0.0 0.00 0.00 0.00 64 1011.6
20260903014555 78 0 0.0 0.0 0.00 0.00 0.00 62 1011.5
20260903013057 79 0 0.0 2.0 0.00 0.00 0.00 61 1011.3
20260903011556 80 351 0.0 3.0 0.00 0.00 0.00 60 1011.1
20260903004601 81 0 0.0 1.0 0.00 0.00 0.00 58 1010.9
20260903003058 82 0 1.0 3.0 0.00 0.00 0.00 57 1011.1
20260903000058 83 0 0.0 4.0 0.00 0.00 0.00 54 1011.0
20260902234605 84 346 1.0 3.0 0.00 0.00 0.00 53 1010.8
20260902233105 84 5 2.0 6.0 0.00 0.00 0.00 52 1010.9
20260902231549 84 348 2.0 6.0 0.00 0.00 0.00 53 1010.9
20260902230057 85 334 2.0 5.0 0.00 0.00 0.00 52 1011.0
20260902224551 85 311 1.0 5.0 0.00 0.00 0.00 53 1011.1
20260902223054 85 313 1.0 6.0 0.00 0.00 0.00 52 1011.0
20260902221549 85 348 2.0 6.0 0.00 0.00 0.00 51 1011.1
20260902220053 85 331 2.0 8.0 0.00 0.00 0.00 51 1011.2
20260902214544 86 342 2.0 4.0 0.00 0.00 0.00 51 1011.2
20260902213108 86 338 1.0 8.0 0.00 0.00 0.00 51 1011.3
20260902211551 86 12 2.0 8.0 0.00 0.00 0.00 51 1011.4
20260902210049 86 47 2.0 5.0 0.00 0.00 0.00 52 1011.4
20260902204548 87 325 1.0 5.0 0.00 0.00 0.00 50 1011.4
20260902203104 86 192 1.0 7.0 0.00 0.00 0.00 49 1011.6
20260902201547 86 0 2.0 5.0 0.00 0.00 0.00 50 1011.6
20260902200059 86 315 1.0 4.0 0.00 0.00 0.00 52 1011.7
20260902194555 85 327 1.0 4.0 0.00 0.00 0.00 51 1011.9
20260902193056 84 326 2.0 5.0 0.00 0.00 0.00 51 1012.0
20260902191554 85 335 3.0 8.0 0.00 0.00 0.00 50 1012.1
20260902190049 84 296 1.0 3.0 0.00 0.00 0.00 52 1012.3
20260902184601 83 24 3.0 9.0 0.00 0.00 0.00 54 1012.4
20260902183107 83 344 1.0 4.0 0.00 0.00 0.00 54 1012.5